Location: Handeloh
(53.2500°N, 9.8330°E)
Time: 19:18:23
(UTC+01:00)

S-56A Canister/Altair - Pass Details

Date: 23 November 2019
Orbit: 633 x 2499 km, 38.9° (Epoch: 10 December)

Event Time Altitude Azimuth Distance (km) Brightness Sun altitude
Rises 16:13:34 0° 227° (SW) 5,662 14.5 -0.7°
Reaches altitude 10° 16:18:21 10° 217° (SW) 4,375 12.9 -1.3°
Maximum altitude 16:27:03 27° 167° (SSE) 2,653 10.5 -2.4°
Drops below altitude 10° 16:33:32 10° 114° (ESE) 3,183 10.4 -3.2°
Sets 16:36:23 0° 102° (ESE) 3,897 10.7 -3.6°
